SCP
0 0 0 -0 -0 -0 0 -0 0 0 0 0 0 0 0 -0 -0 -0 -0 -0 -0 -0 -0 -0 -0 0 -0 0 0 0 0 0 0 -0 -0 -0 -0 -0 -0 -0 -0 -0 -0
0 0 0 0 -0 -0 -0 0 -0 -0 -0 0 0 0 -0 0 0 -0 -0 -0 -0 0 0 0 0 0 0 0 0 0 0 0 0 -0 -0 -0 -0 -0 -0 -0 -0 -0 -0
-0 -0 0 -0 -0 -0 -0 -0 -0 -0 -0 0 0 -0 0 0 0 0 0 0 0 0 0 0 0 0 0 0 0 0 0 0 0 0 -0 -0 -0 -0 -0 0 -0 -0 -0
-0 -0 0 -0 0 0 0 0 0 0 -0 0 -0 -0 -0 0 0 0 0 0 0 0 0 0 0 0 0 0 0 -0 -0 -0 -0 -0 0 0 0 0 -0 -0 0 -0 -0
-0 -0 0 0 0 0 0 0 0 -0 -0 -0 -0 -0 -0 -0 0 0 0 0 0 0 0 -0 0 0 0 0 0 0 0 0 0 0 0 0 0 0 0 0 0 0 0
-0 -0 0 0 0 0 0 0 0 0 0 0 -0 -0 -0 0 0 0 0 0 0 0 0 0 0 0 0 0 0 0 0 0 0 0 0 0 0 0 0 0 0 0 0
-0 -0 -0 0 0 0 0 0 0 0 0 0 -0 0 0 -0 0 0 0 0 0 0 0 0 0 0 0 0 0 0 0 0 0 0 0 0 0 0 0 0 0 0 0
0 -0 -0 0 0 0 0 0 0 0 0 0 -0 0 0 0 0 0 0 -0 0 0 0 0 0 0 0 0 0 0 1 0 0 0 0 0 0 0 0 0 0 0 0
0 -0 -0 -0 0 0 0 0 0 0 0 0 -0 -0 -0 0 0 0 0 0 0 0 0 0 0 0 0 0 0 0 1 0 0 0 0 0 0 0 0 0 0 0 0
0 -0 -0 -0 -0 0 0 0 0 0 0 0 0 0 0 0 0 0 1 1 1 1 0 0 0 0 0 0 0 0 1 0 0 0 0 0 0 0 0 0 0 0 0
0 -0 -0 -0 -0 0 0 0 0 0 0 0 0 0 0 0 0 0 1 1 1 1 1 1 0 0 0 0 1 1 0 0 0 0 0 0 0 0 0 0 0 0 0
0 0 -0 -0 -0 -0 -0 0 0 0 0 0 0 0 0 0 0 1 1 1 1 1 1 1 1 0 0 0 0 0 0 0 0 0 0 0 0 0 0 0 0 0 0
0 0 -0 -0 0 0 -0 -0 0 0 0 0 0 0 0 0 0 0 0 0 0 1 1 1 1 1 1 1 0 0 0 0 0 0 0 0 0 0 0 0 0 0 0
-0 -0 -0 0 -0 -0 -0 0 0 0 0 0 0 0 0 0 0 0 0 0 0 0 0 1 1 1 1 1 0 0 0 0 0 0 0 0 0 0 0 0 0 0 0
0 -0 -0 -0 -0 -0 -0 0 0 0 0 0 0 0 0 0 0 0 0 0 0 0 0 0 1 1 1 1 0 0 0 0 -0 0 -0 -0 0 0 0 0 0 0 0
0 -0 -0 0 -0 -0 -0 -0 -0 -0 -0 0 0 0 0 0 0 0 0 0 0 0 0 0 0 1 0 0 0 -0 -0 -0 -0 0 -0 -0 -0 -0 0 0 -0 0 0
0 0 -0 -0 -0 -0 -0 -0 -0 0 0 0 0 0 0 0 0 0 0 0 0 0 0 0 0 0 0 0 -0 -0 -0 -0 -0 0 -0 -0 -0 -0 -0 0 0 0 0
0 0 -0 0 -0 -0 -0 -0 -0 -0 0 0 0 0 0 0 0 0 0 0 0 0 0 1 0 0 0 0 0 -0 0 0 0 0 0 0 0 0 0 -0 -0 0 0
0 0 0 -0 0 0 -0 -0 -0 -0 0 0 0 0 0 0 0 0 0 0 0 0 0 0 0 0 0 0 -0 0 -0 0 0 0 0 0 0 0 0 0 -0 -0 0
-0 0 -0 -0 0 0 0 -0 -0 -0 -0 0 0 0 0 0 0 0 0 0 0 0 0 0 0 0 0 0 0 -0 0 0 0 0 -0 0 0 0 0 -0 -0 0 1
0 -0 -0 -0 -0 0 0 0 -0 -0 0 -0 0 0 0 0 0 0 0 0 0 0 0 0 0 -0 -0 0 -0 0 0 -0 -0 0 -0 0 0 0 0 -0 0 0 0
-0 -0 -0 -0 0 -0 -0 0 -0 -0 -0 0 0 0 0 0 0 0 0 0 0 0 0 0 0 0 -0 -0 0 0 0 0 0 0 -0 -0 -0 0 0 0 0 0 0
-0 -0 -0 -0 0 -0 -0 0 -0 0 -0 0 0 0 -0 0 0 0 0 0 0 0 0 0 -0 -0 0 -0 -0 -0 0 0 0 0 0 0 -0 0 0 0 0 0 0
0 0 0 0 0 0 0 0 0 0 -0 -0 -0 -0 0 0 0 0 -0 0 0 0 0 0 -0 0 0 0 0 0 0 0 0 -0 0 0 0 -0 -0 0 0 0 0
0 0 0 0 0 0 0 -0 -0 -0 -0 -0 -0 -0 -0 -0 0 0 0 0 0 0 0 0 0 0 0 0 -0 0 0 0 0 0 -0 0 0 0 0 0 0 0 0
0 0 0 0 0 0 0 -0 -0 0 -0 -0 -0 -0 -0 -0 -0 0 0 0 -0 0 0 0 0 0 0 0 0 0 0 0 0 0 -0 0 -0 -0 0 0 0 0 0
Wind_Speed_500mb
27 29 29 28 33 37 36 37 34 30 24 31 36 36 34 31 30 30 29 30 30 29 31 31 35 36 36 34 35 35 33 29 29 31 31 30 28 28 23 22 22 24 25
33 31 35 40 40 41 41 38 36 32 33 40 39 38 39 34 29 36 32 31 29 31 34 37 39 38 38 36 35 35 37 31 27 24 25 26 25 21 18 21 21 23 23
39 40 41 41 40 36 33 33 32 32 41 42 38 37 32 31 31 32 31 29 28 30 36 38 41 38 38 38 36 36 37 36 33 28 19 20 21 19 18 20 20 20 21
43 46 43 38 39 36 32 31 30 32 37 33 33 33 30 28 29 28 27 25 27 30 35 41 40 38 37 37 38 34 28 24 22 25 20 16 21 22 22 21 19 18 17
45 44 45 40 38 37 30 30 29 28 29 30 29 27 26 26 26 24 24 24 31 36 41 41 40 39 38 40 38 38 33 22 19 16 14 10 17 20 19 19 16 17 17
43 41 39 34 33 33 32 31 29 27 29 28 28 27 25 25 28 28 32 36 35 38 38 40 37 36 35 34 34 33 26 16 12 10 8 5 10 16 17 16 18 16 15
42 39 35 34 31 29 29 27 28 30 31 29 29 30 28 31 30 32 39 39 33 34 34 33 33 35 34 32 32 27 18 14 12 16 9 8 12 15 15 14 14 15 15
41 39 35 32 30 28 28 27 28 31 27 26 29 32 31 31 27 26 27 27 28 25 27 31 34 35 28 29 28 21 15 13 15 9 9 13 18 19 18 17 15 16 15
42 38 35 32 28 26 25 26 26 28 24 25 26 29 27 30 26 26 26 24 22 20 24 27 30 31 34 34 27 19 10 13 17 12 12 18 23 23 21 18 16 15 13
39 37 33 30 26 23 28 29 28 25 26 26 28 32 32 29 28 29 26 24 21 25 26 26 27 31 30 28 22 11 7 11 17 12 16 21 23 23 22 21 19 16 13
40 36 34 28 23 27 28 28 28 28 28 28 27 33 32 30 29 27 26 25 25 27 28 30 31 33 28 26 19 11 12 19 17 15 16 20 21 21 19 19 22 21 18
45 43 40 36 31 30 35 40 42 38 33 31 30 31 31 28 24 18 19 24 28 30 34 39 37 33 28 25 17 7 10 20 13 14 16 17 18 19 18 16 16 18 16
42 44 42 41 42 42 43 31 25 25 28 30 25 24 26 27 25 21 17 23 29 33 33 32 25 23 25 24 17 10 15 18 14 11 13 14 14 14 14 13 10 12 18
45 38 36 46 44 48 38 27 24 22 20 25 27 24 22 26 22 16 23 21 19 17 19 17 16 16 13 17 20 11 8 18 13 10 6 3 4 6 8 11 11 11 15
46 33 43 38 38 36 36 31 27 20 14 20 27 22 19 16 16 14 13 16 17 18 21 19 19 20 18 11 9 12 6 5 3 3 10 7 8 10 10 12 13 12 11
49 46 49 44 29 33 33 28 28 15 14 24 21 12 21 14 26 22 19 19 17 24 28 22 15 15 19 18 28 16 15 8 3 6 19 22 16 20 18 8 8 13 8
48 45 43 50 23 38 36 32 27 24 24 21 24 14 24 17 30 30 29 27 23 25 27 22 19 11 8 10 9 13 7 7 17 21 24 30 29 17 23 8 13 12 8
46 41 41 40 35 34 39 25 41 33 22 21 19 33 19 34 38 26 29 26 28 23 18 15 11 14 19 13 11 5 6 4 8 19 12 15 19 23 13 18 22 17 11
45 37 39 36 31 36 33 28 36 29 23 18 19 18 26 30 26 19 17 19 23 19 16 12 12 5 5 9 13 7 7 8 9 6 20 31 15 6 17 16 22 18 11
40 35 42 39 42 39 31 29 26 24 18 14 15 28 18 17 24 21 15 23 14 8 14 16 22 17 5 12 9 8 6 12 15 7 16 15 18 15 18 14 24 13 13
44 47 44 39 32 52 42 35 36 29 20 23 13 18 17 11 25 15 18 20 12 17 15 20 27 15 24 9 11 12 10 32 27 16 17 11 12 9 13 18 15 11 5
58 52 49 43 36 42 44 41 29 29 23 29 22 19 18 12 18 9 18 23 21 20 23 18 19 19 13 12 12 8 12 12 14 30 13 6 9 11 5 14 12 4 2
51 49 51 44 37 37 38 42 40 31 32 37 31 28 19 19 12 10 9 27 30 27 26 20 12 18 20 15 8 14 9 7 18 25 13 11 5 7 13 13 3 3 2
50 47 48 47 41 38 47 48 40 35 34 30 24 26 22 24 12 8 8 42 23 29 23 18 11 20 14 14 7 11 5 12 13 14 21 9 18 1 8 6 5 5 8
57 47 46 46 45 45 51 47 43 36 29 30 29 23 21 24 17 11 14 24 23 26 15 11 16 16 12 11 14 18 9 4 10 8 14 22 16 26 7 12 6 5 3
57 57 51 47 48 49 53 48 47 38 37 32 38 32 24 17 20 16 12 18 21 13 17 22 10 8 10 5 6 8 8 11 12 12 8 10 16 22 14 2 8 3 10
Wind_Direction_500mb
146 137 139 141 134 130 133 140 144 145 129 138 138 143 147 154 158 154 147 142 140 131 124 122 116 123 120 115 110 107 106 104 107 109 110 110 107 112 100 119 127 131 134
133 131 123 122 121 123 125 125 120 118 127 133 133 134 135 134 142 155 142 137 130 125 120 119 120 119 114 109 111 110 106 100 102 105 117 120 111 109 99 115 127 127 133
127 125 124 122 121 116 119 119 117 114 129 133 134 135 134 137 131 132 138 136 128 129 128 127 124 118 113 120 119 116 112 105 95 86 103 120 120 114 111 119 114 123 133
128 126 123 122 116 115 117 116 117 120 123 135 143 141 139 137 135 144 142 139 139 130 138 129 126 125 128 126 120 118 116 106 99 82 81 100 113 113 108 109 114 115 120
137 131 126 127 122 120 116 116 117 123 126 127 131 133 133 131 126 123 130 138 135 137 131 127 132 131 129 119 118 115 110 113 113 75 65 109 116 113 118 116 113 113 118
145 140 135 132 130 127 128 126 121 119 125 128 128 128 124 118 115 114 119 129 134 129 132 132 139 139 135 125 123 119 118 114 95 45 29 64 121 113 109 110 102 104 111
147 141 136 133 131 128 128 124 120 119 120 119 122 123 122 117 114 113 119 118 129 128 130 135 145 148 137 123 111 111 130 109 61 20 26 94 110 106 104 105 106 103 105
145 143 138 136 131 133 128 125 123 125 127 120 120 120 121 114 116 116 126 125 128 140 136 139 147 145 120 119 113 122 109 67 16 10 77 98 97 96 94 94 95 95 99
145 141 138 138 135 132 129 127 126 127 132 126 120 121 124 119 115 107 107 112 120 127 124 127 138 141 123 119 129 124 101 70 43 56 90 102 99 95 93 87 81 77 77
142 139 138 132 131 126 130 128 129 132 134 133 123 123 125 121 110 99 98 104 108 107 112 123 138 146 129 129 120 115 75 43 42 78 102 103 98 93 91 86 75 64 56
143 140 132 132 127 131 127 123 123 123 127 132 128 126 125 119 115 113 107 105 107 109 115 121 132 141 139 129 124 96 54 40 63 89 95 87 90 90 84 81 76 67 58
148 143 136 129 126 125 126 123 119 121 122 129 134 135 134 132 125 118 110 112 107 109 115 120 122 121 113 120 140 171 47 47 68 83 92 99 96 92 83 74 64 61 46
138 139 133 135 134 140 135 126 127 138 137 146 149 145 145 142 133 127 124 126 120 117 119 117 110 113 113 118 123 116 63 63 61 90 102 85 78 72 67 60 50 36 38
144 137 143 145 139 143 146 148 161 134 158 164 157 155 159 144 133 135 142 140 126 117 115 108 107 107 131 143 152 167 97 61 46 35 26 45 19 20 17 16 11 11 25
154 157 154 160 163 155 149 144 139 128 151 153 163 156 154 153 143 160 147 143 128 126 127 113 98 96 79 89 178 174 127 46 37 49 10 287 279 292 297 318 342 359 17
143 147 164 170 168 173 178 156 151 140 173 191 183 179 196 175 182 172 162 146 136 128 121 116 108 87 82 83 73 137 179 191 42 323 314 321 297 297 278 296 9 352 32
139 139 158 164 147 158 161 169 157 173 158 134 167 183 171 167 149 158 152 141 140 128 133 130 118 124 163 141 84 89 96 86 48 24 348 325 297 306 272 79 62 71 64
146 140 154 155 149 146 149 148 143 161 176 175 142 161 146 149 144 143 145 145 145 141 146 152 166 124 100 148 148 142 69 280 307 12 54 7 301 319 18 68 76 72 75
153 148 155 158 161 157 147 153 152 161 186 158 129 153 125 139 147 144 140 142 148 154 153 170 178 170 169 139 148 204 238 255 313 347 31 45 2 3 69 75 81 68 61
166 159 153 158 176 175 159 160 146 154 148 170 142 142 151 138 146 141 149 154 146 137 132 125 113 106 111 242 205 158 60 41 7 356 40 52 36 69 62 80 100 78 57
169 167 165 165 166 184 171 159 159 158 173 164 159 162 171 147 158 124 152 165 179 183 177 155 141 88 123 139 239 199 124 73 48 58 69 75 53 77 62 82 99 101 98
171 176 179 171 167 181 180 176 168 165 170 175 179 189 180 162 164 158 178 179 194 193 183 172 151 103 88 109 191 231 128 133 46 37 71 82 39 36 71 76 78 129 149
179 180 180 179 176 179 184 177 173 176 168 171 184 196 183 185 166 147 175 183 195 200 195 176 161 124 108 114 115 61 16 31 7 24 12 65 39 44 95 96 65 248 83
190 190 190 184 184 184 177 174 181 178 183 182 177 183 196 190 169 151 185 175 158 192 185 179 157 99 96 79 80 69 65 8 30 101 45 319 17 248 187 218 225 281 68
191 196 197 199 190 193 189 187 185 191 190 197 178 172 181 193 183 175 153 173 194 171 178 196 159 149 147 61 60 73 64 6 5 42 27 40 28 31 63 157 252 250 153
195 198 203 203 200 200 204 197 192 192 196 189 187 186 196 200 193 184 180 177 191 168 197 199 187 158 113 166 86 71 75 59 27 346 25 18 29 44 75 79 242 155 190
Wind_Speed_850mb
27 29 29 28 33 37 36 37 34 30 24 31 36 36 34 31 30 30 29 30 30 29 31 31 35 36 36 34 35 35 33 29 29 31 31 30 28 28 23 22 22 24 25
33 31 35 40 40 41 41 38 36 32 33 40 39 38 39 34 29 36 32 31 29 31 34 37 39 38 38 36 35 35 37 31 27 24 25 26 25 21 18 21 21 23 23
39 40 41 41 40 36 33 33 32 32 41 42 38 37 32 31 31 32 31 29 28 30 36 38 41 38 38 38 36 36 37 36 33 28 19 20 21 19 18 20 20 20 21
43 46 43 38 39 36 32 31 30 32 37 33 33 33 30 28 29 28 27 25 27 30 35 41 40 38 37 37 38 34 28 24 22 25 20 16 21 22 22 21 19 18 17
45 44 45 40 38 37 30 30 29 28 29 30 29 27 26 26 26 24 24 24 31 36 41 41 40 39 38 40 38 38 33 22 19 16 14 10 17 20 19 19 16 17 17
43 41 39 34 33 33 32 31 29 27 29 28 28 27 25 25 28 28 32 36 35 38 38 40 37 36 35 34 34 33 26 16 12 10 8 5 10 16 17 16 18 16 15
42 39 35 34 31 29 29 27 28 30 31 29 29 30 28 31 30 32 39 39 33 34 34 33 33 35 34 32 32 27 18 14 12 16 9 8 12 15 15 14 14 15 15
41 39 35 32 30 28 28 27 28 31 27 26 29 32 31 31 27 26 27 27 28 25 27 31 34 35 28 29 28 21 15 13 15 9 9 13 18 19 18 17 15 16 15
42 38 35 32 28 26 25 26 26 28 24 25 26 29 27 30 26 26 26 24 22 20 24 27 30 31 34 34 27 19 10 13 17 12 12 18 23 23 21 18 16 15 13
39 37 33 30 26 23 28 29 28 25 26 26 28 32 32 29 28 29 26 24 21 25 26 26 27 31 30 28 22 11 7 11 17 12 16 21 23 23 22 21 19 16 13
40 36 34 28 23 27 28 28 28 28 28 28 27 33 32 30 29 27 26 25 25 27 28 30 31 33 28 26 19 11 12 19 17 15 16 20 21 21 19 19 22 21 18
45 43 40 36 31 30 35 40 42 38 33 31 30 31 31 28 24 18 19 24 28 30 34 39 37 33 28 25 17 7 10 20 13 14 16 17 18 19 18 16 16 18 16
42 44 42 41 42 42 43 31 25 25 28 30 25 24 26 27 25 21 17 23 29 33 33 32 25 23 25 24 17 10 15 18 14 11 13 14 14 14 14 13 10 12 18
45 38 36 46 44 48 38 27 24 22 20 25 27 24 22 26 22 16 23 21 19 17 19 17 16 16 13 17 20 11 8 18 13 10 6 3 4 6 8 11 11 11 15
46 33 43 38 38 36 36 31 27 20 14 20 27 22 19 16 16 14 13 16 17 18 21 19 19 20 18 11 9 12 6 5 3 3 10 7 8 10 10 12 13 12 11
49 46 49 44 29 33 33 28 28 15 14 24 21 12 21 14 26 22 19 19 17 24 28 22 15 15 19 18 28 16 15 8 3 6 19 22 16 20 18 8 8 13 8
48 45 43 50 23 38 36 32 27 24 24 21 24 14 24 17 30 30 29 27 23 25 27 22 19 11 8 10 9 13 7 7 17 21 24 30 29 17 23 8 13 12 8
46 41 41 40 35 34 39 25 41 33 22 21 19 33 19 34 38 26 29 26 28 23 18 15 11 14 19 13 11 5 6 4 8 19 12 15 19 23 13 18 22 17 11
45 37 39 36 31 36 33 28 36 29 23 18 19 18 26 30 26 19 17 19 23 19 16 12 12 5 5 9 13 7 7 8 9 6 20 31 15 6 17 16 22 18 11
40 35 42 39 42 39 31 29 26 24 18 14 15 28 18 17 24 21 15 23 14 8 14 16 22 17 5 12 9 8 6 12 15 7 16 15 18 15 18 14 24 13 13
44 47 44 39 32 52 42 35 36 29 20 23 13 18 17 11 25 15 18 20 12 17 15 20 27 15 24 9 11 12 10 32 27 16 17 11 12 9 13 18 15 11 5
58 52 49 43 36 42 44 41 29 29 23 29 22 19 18 12 18 9 18 23 21 20 23 18 19 19 13 12 12 8 12 12 14 30 13 6 9 11 5 14 12 4 2
51 49 51 44 37 37 38 42 40 31 32 37 31 28 19 19 12 10 9 27 30 27 26 20 12 18 20 15 8 14 9 7 18 25 13 11 5 7 13 13 3 3 2
50 47 48 47 41 38 47 48 40 35 34 30 24 26 22 24 12 8 8 42 23 29 23 18 11 20 14 14 7 11 5 12 13 14 21 9 18 1 8 6 5 5 8
57 47 46 46 45 45 51 47 43 36 29 30 29 23 21 24 17 11 14 24 23 26 15 11 16 16 12 11 14 18 9 4 10 8 14 22 16 26 7 12 6 5 3
57 57 51 47 48 49 53 48 47 38 37 32 38 32 24 17 20 16 12 18 21 13 17 22 10 8 10 5 6 8 8 11 12 12 8 10 16 22 14 2 8 3 10
Wind_Direction_850mb
146 137 139 141 134 130 133 140 144 145 129 138 138 143 147 154 158 154 147 142 140 131 124 122 116 123 120 115 110 107 106 104 107 109 110 110 107 112 100 119 127 131 134
133 131 123 122 121 123 125 125 120 118 127 133 133 134 135 134 142 155 142 137 130 125 120 119 120 119 114 109 111 110 106 100 102 105 117 120 111 109 99 115 127 127 133
127 125 124 122 121 116 119 119 117 114 129 133 134 135 134 137 131 132 138 136 128 129 128 127 124 118 113 120 119 116 112 105 95 86 103 120 120 114 111 119 114 123 133
128 126 123 122 116 115 117 116 117 120 123 135 143 141 139 137 135 144 142 139 139 130 138 129 126 125 128 126 120 118 116 106 99 82 81 100 113 113 108 109 114 115 120
137 131 126 127 122 120 116 116 117 123 126 127 131 133 133 131 126 123 130 138 135 137 131 127 132 131 129 119 118 115 110 113 113 75 65 109 116 113 118 116 113 113 118
145 140 135 132 130 127 128 126 121 119 125 128 128 128 124 118 115 114 119 129 134 129 132 132 139 139 135 125 123 119 118 114 95 45 29 64 121 113 109 110 102 104 111
147 141 136 133 131 128 128 124 120 119 120 119 122 123 122 117 114 113 119 118 129 128 130 135 145 148 137 123 111 111 130 109 61 20 26 94 110 106 104 105 106 103 105
145 143 138 136 131 133 128 125 123 125 127 120 120 120 121 114 116 116 126 125 128 140 136 139 147 145 120 119 113 122 109 67 16 10 77 98 97 96 94 94 95 95 99
145 141 138 138 135 132 129 127 126 127 132 126 120 121 124 119 115 107 107 112 120 127 124 127 138 141 123 119 129 124 101 70 43 56 90 102 99 95 93 87 81 77 77
142 139 138 132 131 126 130 128 129 132 134 133 123 123 125 121 110 99 98 104 108 107 112 123 138 146 129 129 120 115 75 43 42 78 102 103 98 93 91 86 75 64 56
143 140 132 132 127 131 127 123 123 123 127 132 128 126 125 119 115 113 107 105 107 109 115 121 132 141 139 129 124 96 54 40 63 89 95 87 90 90 84 81 76 67 58
148 143 136 129 126 125 126 123 119 121 122 129 134 135 134 132 125 118 110 112 107 109 115 120 122 121 113 120 140 171 47 47 68 83 92 99 96 92 83 74 64 61 46
138 139 133 135 134 140 135 126 127 138 137 146 149 145 145 142 133 127 124 126 120 117 119 117 110 113 113 118 123 116 63 63 61 90 102 85 78 72 67 60 50 36 38
144 137 143 145 139 143 146 148 161 134 158 164 157 155 159 144 133 135 142 140 126 117 115 108 107 107 131 143 152 167 97 61 46 35 26 45 19 20 17 16 11 11 25
154 157 154 160 163 155 149 144 139 128 151 153 163 156 154 153 143 160 147 143 128 126 127 113 98 96 79 89 178 174 127 46 37 49 10 287 279 292 297 318 342 359 17
143 147 164 170 168 173 178 156 151 140 173 191 183 179 196 175 182 172 162 146 136 128 121 116 108 87 82 83 73 137 179 191 42 323 314 321 297 297 278 296 9 352 32
139 139 158 164 147 158 161 169 157 173 158 134 167 183 171 167 149 158 152 141 140 128 133 130 118 124 163 141 84 89 96 86 48 24 348 325 297 306 272 79 62 71 64
146 140 154 155 149 146 149 148 143 161 176 175 142 161 146 149 144 143 145 145 145 141 146 152 166 124 100 148 148 142 69 280 307 12 54 7 301 319 18 68 76 72 75
153 148 155 158 161 157 147 153 152 161 186 158 129 153 125 139 147 144 140 142 148 154 153 170 178 170 169 139 148 204 238 255 313 347 31 45 2 3 69 75 81 68 61
166 159 153 158 176 175 159 160 146 154 148 170 142 142 151 138 146 141 149 154 146 137 132 125 113 106 111 242 205 158 60 41 7 356 40 52 36 69 62 80 100 78 57
169 167 165 165 166 184 171 159 159 158 173 164 159 162 171 147 158 124 152 165 179 183 177 155 141 88 123 139 239 199 124 73 48 58 69 75 53 77 62 82 99 101 98
171 176 179 171 167 181 180 176 168 165 170 175 179 189 180 162 164 158 178 179 194 193 183 172 151 103 88 109 191 231 128 133 46 37 71 82 39 36 71 76 78 129 149
179 180 180 179 176 179 184 177 173 176 168 171 184 196 183 185 166 147 175 183 195 200 195 176 161 124 108 114 115 61 16 31 7 24 12 65 39 44 95 96 65 248 83
190 190 190 184 184 184 177 174 181 178 183 182 177 183 196 190 169 151 185 175 158 192 185 179 157 99 96 79 80 69 65 8 30 101 45 319 17 248 187 218 225 281 68
191 196 197 199 190 193 189 187 185 191 190 197 178 172 181 193 183 175 153 173 194 171 178 196 159 149 147 61 60 73 64 6 5 42 27 40 28 31 63 157 252 250 153
195 198 203 203 200 200 204 197 192 192 196 189 187 186 196 200 193 184 180 177 191 168 197 199 187 158 113 166 86 71 75 59 27 346 25 18 29 44 75 79 242 155 190